TimeEDT,TemperatureF,Dew PointF,Humidity,Sea Level PressureIn,VisibilityMPH,Wind Direction,Wind SpeedMPH,Gust SpeedMPH,PrecipitationIn,Events,Conditions,WindDirDegrees,DateUTC
12:15 AM,40.8,38.1,90,29.93,10.0,NNW,5.8,-,N/A,,Scattered Clouds,340,2013-09-22 04:15:00
12:36 AM,39.9,37.4,91,29.94,10.0,NW,3.5,-,N/A,,Scattered Clouds,320,2013-09-22 04:36:00
12:56 AM,38.3,36.5,93,29.94,10.0,NW,3.5,-,N/A,,Clear,310,2013-09-22 04:56:00
1:16 AM,37.0,35.8,95,29.95,10.0,WNW,4.6,-,N/A,,Scattered Clouds,290,2013-09-22 05:16:00
1:36 AM,37.0,36.1,97,29.95,10.0,WNW,5.8,-,N/A,,Mostly Cloudy,300,2013-09-22 05:36:00
1:56 AM,38.3,37.0,95,29.96,10.0,WNW,5.8,-,N/A,,Mostly Cloudy,290,2013-09-22 05:56:00
2:16 AM,37.4,36.0,95,29.97,10.0,NW,4.6,-,N/A,,Scattered Clouds,310,2013-09-22 06:16:00
2:36 AM,36.3,35.2,96,29.97,10.0,NW,4.6,-,N/A,,Scattered Clouds,310,2013-09-22 06:36:00
2:55 AM,35.8,34.9,97,29.97,10.0,NW,4.6,-,N/A,,Clear,310,2013-09-22 06:55:00
3:16 AM,35.6,34.9,97,29.98,10.0,WNW,4.6,-,N/A,,Clear,300,2013-09-22 07:16:00
3:35 AM,35.8,34.9,97,29.98,10.0,NW,5.8,-,N/A,,Mostly Cloudy,310,2013-09-22 07:35:00
3:56 AM,36.3,35.2,96,29.98,10.0,Calm,Calm,-,N/A,,Mostly Cloudy,0,2013-09-22 07:56:00
4:16 AM,38.7,37.4,95,29.98,10.0,NW,4.6,-,N/A,,Overcast,310,2013-09-22 08:16:00
4:35 AM,37.9,36.5,95,29.99,10.0,NW,3.5,-,N/A,,Mostly Cloudy,310,2013-09-22 08:35:00
4:56 AM,37.4,36.3,96,29.99,10.0,NW,4.6,-,N/A,,Overcast,310,2013-09-22 08:56:00
5:16 AM,37.8,36.5,95,30.00,10.0,NW,4.6,-,N/A,,Mostly Cloudy,310,2013-09-22 09:16:00
5:36 AM,37.2,36.0,95,30.00,10.0,WNW,4.6,-,N/A,,Mostly Cloudy,300,2013-09-22 09:36:00
5:56 AM,38.3,36.9,95,30.01,10.0,NW,4.6,-,N/A,,Overcast,310,2013-09-22 09:56:00
6:16 AM,37.6,36.0,94,30.01,10.0,NNW,3.5,-,N/A,,Mostly Cloudy,330,2013-09-22 10:16:00
6:36 AM,39.6,37.8,93,30.02,10.0,NW,3.5,-,N/A,,Overcast,310,2013-09-22 10:36:00
6:56 AM,40.1,37.4,90,30.02,10.0,North,3.5,-,N/A,,Overcast,350,2013-09-22 10:56:00
7:15 AM,41.0,37.6,88,30.02,10.0,Calm,Calm,-,N/A,,Overcast,0,2013-09-22 11:15:00
7:36 AM,41.0,38.5,91,30.03,10.0,NW,3.5,-,N/A,,Overcast,310,2013-09-22 11:36:00
7:56 AM,41.4,38.8,91,30.03,10.0,NW,3.5,-,N/A,,Overcast,310,2013-09-22 11:56:00
8:15 AM,41.7,39.2,91,30.04,10.0,NW,4.6,-,N/A,,Overcast,310,2013-09-22 12:15:00
8:36 AM,42.3,39.7,91,30.04,10.0,WNW,4.6,-,N/A,,Overcast,290,2013-09-22 12:36:00
8:56 AM,43.2,40.3,90,30.05,10.0,NW,4.6,-,N/A,,Overcast,310,2013-09-22 12:56:00
9:16 AM,43.9,40.1,87,30.05,10.0,NW,4.6,-,N/A,,Overcast,320,2013-09-22 13:16:00
9:36 AM,45.0,41.2,87,30.06,10.0,NW,4.6,-,N/A,,Overcast,310,2013-09-22 13:36:00
9:56 AM,46.4,41.2,82,30.07,10.0,NW,5.8,-,N/A,,Overcast,310,2013-09-22 13:56:00
10:16 AM,47.3,41.2,79,30.07,10.0,Calm,Calm,-,N/A,,Overcast,0,2013-09-22 14:16:00
10:36 AM,48.0,39.9,74,30.07,10.0,North,8.1,-,N/A,,Overcast,350,2013-09-22 14:36:00
10:55 AM,48.0,39.6,73,30.08,10.0,NNW,6.9,-,N/A,,Overcast,330,2013-09-22 14:55:00
11:16 AM,48.9,38.8,68,30.08,10.0,North,6.9,-,N/A,,Overcast,350,2013-09-22 15:16:00
11:35 AM,49.8,37.0,61,30.08,10.0,North,8.1,-,N/A,,Overcast,350,2013-09-22 15:35:00
11:56 AM,49.8,36.7,61,30.08,10.0,North,6.9,-,N/A,,Overcast,350,2013-09-22 15:56:00
12:16 PM,50.5,36.3,58,30.08,10.0,NNW,10.4,-,N/A,,Overcast,330,2013-09-22 16:16:00
12:35 PM,50.9,36.7,58,30.08,10.0,NW,8.1,-,N/A,,Overcast,320,2013-09-22 16:35:00
12:56 PM,50.5,35.8,57,30.08,10.0,North,8.1,-,N/A,,Overcast,350,2013-09-22 16:56:00
1:16 PM,51.1,36.0,56,30.08,10.0,North,6.9,-,N/A,,Overcast,350,2013-09-22 17:16:00
1:36 PM,50.9,37.2,59,30.08,10.0,NNE,6.9,-,N/A,,Overcast,30,2013-09-22 17:36:00
1:56 PM,51.3,36.9,58,30.08,10.0,North,6.9,-,N/A,,Overcast,10,2013-09-22 17:56:00
2:16 PM,51.8,37.6,58,30.08,10.0,NNW,6.9,-,N/A,,Overcast,340,2013-09-22 18:16:00
2:36 PM,51.6,35.8,55,30.07,10.0,North,8.1,-,N/A,,Overcast,10,2013-09-22 18:36:00
2:56 PM,52.2,37.2,57,30.07,10.0,North,8.1,-,N/A,,Overcast,360,2013-09-22 18:56:00
3:15 PM,51.8,37.4,58,30.07,10.0,NNE,9.2,-,N/A,,Overcast,20,2013-09-22 19:15:00
3:36 PM,53.4,38.5,57,30.07,10.0,NNW,8.1,-,N/A,,Overcast,330,2013-09-22 19:36:00
3:56 PM,52.3,37.4,57,30.07,10.0,Calm,Calm,-,N/A,,Overcast,0,2013-09-22 19:56:00
4:15 PM,51.6,38.3,60,30.07,10.0,North,8.1,-,N/A,,Overcast,350,2013-09-22 20:15:00
4:36 PM,51.3,38.1,61,30.07,10.0,NW,8.1,-,N/A,,Overcast,310,2013-09-22 20:36:00
4:56 PM,50.9,38.3,62,30.07,10.0,NW,6.9,-,N/A,,Overcast,310,2013-09-22 20:56:00
5:16 PM,50.9,37.9,61,30.08,10.0,NNW,4.6,-,N/A,,Overcast,340,2013-09-22 21:16:00
5:36 PM,50.5,37.9,62,30.07,10.0,NNE,3.5,-,N/A,,Overcast,20,2013-09-22 21:36:00
5:56 PM,50.0,37.8,63,30.07,10.0,NW,3.5,-,N/A,,Overcast,320,2013-09-22 21:56:00
6:16 PM,50.0,37.8,63,30.07,10.0,NNE,5.8,-,N/A,,Overcast,20,2013-09-22 22:16:00
6:36 PM,49.5,38.1,65,30.07,10.0,Calm,Calm,-,N/A,,Overcast,0,2013-09-22 22:36:00
6:55 PM,49.1,39.9,71,30.07,10.0,NNW,3.5,-,N/A,,Overcast,340,2013-09-22 22:55:00
7:16 PM,48.4,40.3,74,30.07,10.0,NNW,3.5,-,N/A,,Overcast,340,2013-09-22 23:16:00
7:36 PM,47.8,40.3,75,30.07,10.0,Calm,Calm,-,N/A,,Overcast,0,2013-09-22 23:36:00
7:56 PM,47.3,40.8,78,30.08,10.0,Calm,Calm,-,N/A,,Overcast,0,2013-09-22 23:56:00
8:16 PM,47.5,38.7,71,30.08,10.0,Calm,Calm,-,N/A,,Overcast,0,2013-09-23 00:16:00
8:36 PM,45.5,41.4,85,30.09,10.0,NNW,3.5,-,N/A,,Overcast,330,2013-09-23 00:36:00
8:56 PM,46.2,41.0,82,30.09,10.0,Calm,Calm,-,N/A,,Overcast,0,2013-09-23 00:56:00
9:16 PM,46.2,39.6,78,30.10,10.0,Calm,Calm,-,N/A,,Overcast,0,2013-09-23 01:16:00
9:35 PM,45.1,40.6,84,30.10,10.0,Calm,Calm,-,N/A,,Overcast,0,2013-09-23 01:35:00
9:56 PM,42.8,40.1,90,30.10,10.0,Calm,Calm,-,N/A,,Overcast,0,2013-09-23 01:56:00
10:16 PM,39.7,37.9,93,30.10,10.0,Calm,Calm,-,N/A,,Scattered Clouds,0,2013-09-23 02:16:00
10:36 PM,39.4,38.1,95,30.10,10.0,Calm,Calm,-,N/A,,Mostly Cloudy,0,2013-09-23 02:36:00
10:56 PM,39.4,38.5,97,30.11,10.0,Calm,Calm,-,N/A,,Mostly Cloudy,0,2013-09-23 02:56:00
11:16 PM,38.7,37.0,94,30.11,10.0,Calm,Calm,-,N/A,,Overcast,0,2013-09-23 03:16:00
11:36 PM,39.9,38.1,93,30.11,10.0,NNE,4.6,-,N/A,,Overcast,20,2013-09-23 03:36:00
11:56 PM,40.1,38.3,93,30.11,10.0,North,5.8,-,N/A,,Overcast,360,2013-09-23 03:56:00